Stations météo

réclame
Mon MeteoGroup
Jersey Airport, Grande-Bretagne (3895): Température de l'air & dewpoint: 17.11.2017 11:00:00 - 23.11.2017 11:00:00 (GMT)Jersey Airport, Grande-Bretagne (3895): Vitesse du vent & gusts: 17.11.2017 11:00:00 - 23.11.2017 11:00:00 (GMT)Jersey Airport, Grande-Bretagne (3895): Direction du vent: 17.11.2017 11:00:00 - 23.11.2017 11:00:00 (GMT)Jersey Airport, Grande-Bretagne (3895): reduced air pressure: 17.11.2017 11:00:00 - 23.11.2017 11:00:00 (GMT)Jersey Airport, Grande-Bretagne (3895): visibility: 17.11.2017 11:00:00 - 23.11.2017 11:00:00 (GMT)Jersey Airport, Grande-Bretagne (3895): Ensoleillement: 17.11.2017 11:00:00 - 23.11.2017 11:00:00 (GMT)Jersey Airport, Grande-Bretagne (3895): Quantités de précipitations: 17.11.2017 11:00:00 - 23.11.2017 11:00:00 (GMT)
Date & Time tt [°C] td [°C] ff [km/h] ff [knt] fx [km/h] fx [knt] dd ppp [hPa] vv [km] sd [min] rr [mm]
23.11.2017 11:00:00 12,0 7,0 37 20 - - W - 10 - -
23.11.2017 10:00:00 11,6 6,1 35 19 57 31 W 1003,7 10 0 0,0
23.11.2017 09:00:00 11,6 7,4 37 20 54 29 W 1002,2 10 12 0,0
23.11.2017 08:00:00 11,1 8,6 31 17 55 30 W 1000,6 10 0 0,0
23.11.2017 07:00:00 11,8 10,7 42 23 57 31 W 998,3 10 0 0,0
23.11.2017 06:00:00 12,6 11,7 41 22 68 37 SW 996,6 10 0 1,6
23.11.2017 05:00:00 13,2 11,5 39 21 61 33 SW 995,5 10 0 0,2
23.11.2017 04:00:00 13,0 11,9 37 20 65 35 SW 994,3 10 0 -
23.11.2017 03:00:00 13,0 11,7 50 27 78 42 WSW 992,9 10 0 0,4
23.11.2017 02:00:00 13,7 11,6 39 21 70 38 SSW 991,4 10 0 0,2
23.11.2017 01:00:00 13,6 11,7 54 29 81 44 SSW 991,1 10 0 0,0
23.11.2017 00:00:00 14,5 11,3 48 26 76 41 SSW 991,5 10 - 0,2
22.11.2017 23:00:00 14,7 10,5 44 24 76 41 SSW 992,3 10 0 0,0
22.11.2017 22:00:00 15,2 10,3 29 16 72 39 S 993,3 10 0 0,0
22.11.2017 21:00:00 14,9 10,1 42 23 68 37 SSW 994,1 10 0 0,0
22.11.2017 20:00:00 14,6 10,3 28 15 67 36 S 994,8 10 0 0,0
22.11.2017 19:00:00 15,1 10,0 39 21 65 35 S 995,6 10 0 0,0
22.11.2017 18:00:00 14,1 10,3 34 18 57 31 S 995,9 10 0 0,0
22.11.2017 17:00:00 13,9 9,1 35 19 57 31 S 996,8 10 0 0,0
22.11.2017 16:00:00 13,8 8,9 31 17 65 35 S 997,8 10 30 0,0
22.11.2017 15:00:00 13,7 9,2 31 17 59 32 S 998,9 10 60 0,0
22.11.2017 14:00:00 13,5 9,5 29 16 50 27 S 999,5 10 60 0,0
22.11.2017 13:00:00 13,8 10,5 29 16 48 26 S 1000,4 10 60 0,0
22.11.2017 12:00:00 13,6 10,7 28 15 - - S 1001,6 10 60 0,0
22.11.2017 11:00:00 12,5 10,3 29 16 52 28 S 1003,0 10 60 0,0
22.11.2017 10:00:00 11,8 10,0 28 15 48 26 SSE 1004,0 10 12 0,0
22.11.2017 09:00:00 11,5 9,9 31 17 55 30 S 1004,7 10 42 0,0
22.11.2017 08:00:00 11,3 9,6 31 17 52 28 S 1005,0 10 0 0,0
22.11.2017 07:00:00 11,4 9,7 28 15 48 26 S 1005,6 10 0 0,0
22.11.2017 06:00:00 11,5 9,9 24 13 - - S 1006,1 10 0 0,0
22.11.2017 05:00:00 12,0 10,1 21 11 - - S 1006,6 10 0 0,0
22.11.2017 04:00:00 12,0 10,4 29 16 52 28 S 1007,4 10 0 0,0
22.11.2017 03:00:00 12,1 10,5 28 15 - - S 1008,1 10 0 0,0
22.11.2017 02:00:00 11,9 10,7 22 12 - - S 1008,8 10 0 0,0
22.11.2017 01:00:00 11,9 11,1 18 10 - - S 1009,3 10 0 0,0
22.11.2017 00:00:00 12,3 11,0 21 11 - - S 1010,2 10 - 0,0
21.11.2017 23:00:00 12,5 10,9 24 13 - - SSW 1010,8 10 0 0,0
21.11.2017 22:00:00 12,7 10,8 24 13 - - SSW 1010,9 10 0 0,0
21.11.2017 21:00:00 13,0 10,7 22 12 - - SSW 1011,2 10 0 0,0
21.11.2017 20:00:00 13,4 10,5 24 13 - - SW 1011,7 10 0 0,0
21.11.2017 19:00:00 13,4 10,1 26 14 - - SW 1012,1 10 0 0,0
21.11.2017 18:00:00 13,3 10,1 22 12 - - SSW 1012,5 10 0 0,0
21.11.2017 17:00:00 13,3 10,6 21 11 - - SSW 1012,9 10 0 0,0
21.11.2017 16:00:00 13,0 10,8 22 12 - - SSW 1013,1 10 0 0,0
21.11.2017 15:00:00 13,0 10,2 22 12 - - SSW 1013,5 10 0 0,0
21.11.2017 14:00:00 12,8 10,3 24 13 - - SSW 1013,9 10 0 0,0
21.11.2017 13:00:00 13,1 10,2 28 15 - - SSW 1014,2 10 0 0,0
21.11.2017 12:00:00 12,9 10,0 26 14 - - SSW 1014,8 10 0 0,0
21.11.2017 11:00:00 12,8 9,9 26 14 - - SW 1015,7 10 0 -
21.11.2017 10:00:00 12,5 9,3 28 15 - - SW 1016,0 10 0 0,0
21.11.2017 09:00:00 12,4 9,2 28 15 - - SW 1015,9 10 0 0,0
21.11.2017 08:00:00 12,2 9,5 22 12 - - SW 1015,8 10 0 0,0
21.11.2017 07:00:00 12,4 9,8 21 11 - - SW 1015,6 10 0 0,0
21.11.2017 06:00:00 12,3 9,7 21 11 - - SW 1015,6 10 0 0,0
21.11.2017 05:00:00 12,1 10,0 22 12 - - SW 1016,0 10 0 0,0
21.11.2017 04:00:00 12,0 9,9 21 11 - - SSW 1016,4 10 0 0,0
21.11.2017 03:00:00 11,9 9,6 24 13 - - SW 1016,7 10 0 0,0
21.11.2017 02:00:00 11,8 9,6 24 13 - - SW 1017,2 10 0 0,0
21.11.2017 01:00:00 11,8 9,0 29 16 - - SW 1017,6 10 0 0,0
21.11.2017 00:00:00 11,3 9,3 24 13 - - SW 1018,1 10 - 0,0
20.11.2017 23:00:00 11,0 9,5 31 17 - - WSW 1018,3 10 0 0,0
20.11.2017 22:00:00 11,3 9,9 29 16 - - WSW 1018,5 10 0 0,0
20.11.2017 21:00:00 11,0 9,4 26 14 - - WSW 1018,9 10 0 0,0
20.11.2017 20:00:00 11,1 9,2 28 15 - - WSW 1019,1 10 0 0,0
20.11.2017 19:00:00 11,3 9,2 34 18 - - WSW 1019,1 10 0 0,0
20.11.2017 18:00:00 11,7 9,2 28 15 - - WSW 1018,9 10 0 0,0
20.11.2017 17:00:00 11,2 9,4 15 8 - - SW 1019,1 10 0 0,0
20.11.2017 16:00:00 11,5 9,2 22 12 - - WSW 1019,0 10 18 0,0
20.11.2017 15:00:00 12,0 9,6 24 13 - - WSW 1019,3 10 12 0,0
20.11.2017 14:00:00 12,2 10,1 26 14 - - WSW 1019,7 10 18 0,0
20.11.2017 13:00:00 11,7 9,5 24 13 - - SW 1020,3 10 0 0,0
20.11.2017 12:00:00 11,6 9,7 28 15 - - SW 1020,9 10 0 0,0
20.11.2017 11:00:00 11,3 9,3 31 17 - - SW 1021,4 10 0 0,0
20.11.2017 10:00:00 11,5 9,4 35 19 48 26 WSW 1021,8 10 0 0,0
20.11.2017 09:00:00 11,2 9,0 35 19 - - WSW 1021,7 10 0 0,0
20.11.2017 08:00:00 11,0 8,9 31 17 46 25 WSW 1021,7 10 0 0,0
20.11.2017 07:00:00 10,9 8,9 34 18 - - WSW 1021,6 10 0 0,0
20.11.2017 06:00:00 10,7 8,2 28 15 - - WSW 1021,9 10 0 0,0
20.11.2017 05:00:00 10,6 9,1 29 16 - - WSW 1022,0 10 0 0,0
20.11.2017 04:00:00 10,3 8,5 28 15 - - WSW 1022,2 10 0 0,0
20.11.2017 03:00:00 11,0 10,2 22 12 - - WSW 1022,8 10 0 0,0
20.11.2017 02:00:00 11,1 10,6 26 14 - - SW 1022,8 10 0 -
20.11.2017 01:00:00 11,2 10,7 13 7 - - WSW 1023,1 10 0 0,0
20.11.2017 00:00:00 11,3 10,9 11 6 - - SW 1023,9 10 - 0,0
19.11.2017 23:00:00 11,3 10,8 11 6 - - S 1024,3 3,2 0 0,0
19.11.2017 22:00:00 11,1 8,9 13 7 - - S 1024,9 10 0 0,0
19.11.2017 21:00:00 10,2 8,3 9 5 - - SSE 1024,9 10 0 -
19.11.2017 20:00:00 10,0 7,7 8 4 - - S 1025,0 10 0 0,0
19.11.2017 19:00:00 9,9 7,3 8 4 - - S 1024,9 10 0 0,0
19.11.2017 18:00:00 9,7 7,1 9 5 - - SE 1025,0 10 0 0,0
19.11.2017 17:00:00 9,8 6,9 5 3 - - SSE 1025,0 10 0 0,0
19.11.2017 16:00:00 10,1 6,6 8 4 - - SE 1024,9 10 0 0,0
19.11.2017 15:00:00 10,8 6,7 4 2 - - - 1024,6 10 6 0,0
19.11.2017 14:00:00 11,0 6,1 5 3 - - NNE 1024,6 10 18 0,0
19.11.2017 13:00:00 11,3 6,0 4 2 - - - 1025,0 10 54 0,0
19.11.2017 12:00:00 10,5 6,0 8 4 - - ESE 1025,0 10 0 0,0
19.11.2017 11:00:00 10,2 7,0 9 5 - - E 1025,1 10 0 0,0
19.11.2017 10:00:00 10,0 7,5 9 5 - - E 1024,8 10 0 0,0
19.11.2017 09:00:00 9,7 8,5 9 5 - - E 1024,5 10 0 0,0
19.11.2017 08:00:00 9,6 8,9 11 6 - - ENE 1024,2 10 0 0,2
19.11.2017 07:00:00 9,9 9,5 13 7 - - NE 1023,5 7 0 0,4
19.11.2017 06:00:00 10,7 10,4 15 8 - - NNE 1022,7 5 0 2,0
19.11.2017 05:00:00 12,4 11,3 21 11 - - WNW 1022,4 10 0 0,0
19.11.2017 04:00:00 12,2 11,3 24 13 - - WNW 1022,4 4,5 0 0,6
19.11.2017 03:00:00 12,3 11,2 24 13 - - WNW 1022,7 10 0 0,0
19.11.2017 02:00:00 12,2 11,1 26 14 - - WNW 1022,9 10 0 -
19.11.2017 01:00:00 12,3 10,5 22 12 - - W 1023,0 10 0 0,0
19.11.2017 00:00:00 12,2 10,3 24 13 - - WNW 1023,5 10 - 0,0
18.11.2017 23:00:00 11,8 9,9 22 12 - - W 1023,5 10 0 0,0
18.11.2017 22:00:00 11,9 9,3 22 12 - - W 1024,0 10 0 0,0
18.11.2017 21:00:00 11,7 8,9 24 13 - - W 1024,1 10 0 0,0
18.11.2017 20:00:00 11,6 8,3 26 14 - - W 1024,3 10 0 0,0
18.11.2017 19:00:00 11,4 7,5 26 14 - - W 1024,5 10 0 0,0
18.11.2017 18:00:00 11,2 7,0 24 13 - - W 1024,7 10 0 0,0
18.11.2017 17:00:00 11,2 7,4 22 12 - - W 1025,0 10 0 0,0
18.11.2017 16:00:00 11,2 7,8 24 13 - - W 1025,0 10 0 0,0
18.11.2017 15:00:00 11,3 7,7 21 11 - - W 1025,2 10 0 0,0
18.11.2017 14:00:00 11,6 7,7 21 11 - - W 1025,5 10 6 0,0
18.11.2017 13:00:00 11,3 6,3 21 11 - - WSW 1026,0 10 36 0,0
18.11.2017 12:00:00 11,1 5,4 13 7 - - WSW 1026,8 10 6 0,0
18.11.2017 11:00:00 10,9 4,6 11 6 - - WSW 1027,2 10 54 0,0
18.11.2017 10:00:00 10,5 4,4 5 3 - - SW 1027,1 10 54 0,0
18.11.2017 09:00:00 9,9 6,3 2 1 - - NW 1027,5 10 48 0,0
18.11.2017 08:00:00 7,4 2,9 5 3 - - NNW 1027,2 10 6 0,0
18.11.2017 07:00:00 6,4 2,3 8 4 - - NNW 1027,0 10 0 0,0
18.11.2017 06:00:00 6,6 2,5 5 3 - - NW 1026,8 10 0 0,0
18.11.2017 05:00:00 6,1 3,0 4 2 - - - 1026,9 10 0 0,0
18.11.2017 04:00:00 6,4 3,2 5 3 - - N 1027,2 10 0 0,0
18.11.2017 03:00:00 6,0 3,6 9 5 - - N 1027,6 10 0 0,0
18.11.2017 02:00:00 6,8 5,2 5 3 - - NNW 1027,9 10 0 0,0
18.11.2017 01:00:00 7,3 4,9 8 4 - - E 1028,1 10 0 0,0
18.11.2017 00:00:00 6,9 5,4 4 2 - - SSE 1027,9 10 - -
17.11.2017 23:00:00 7,0 4,8 5 3 - - E 1028,3 10 0 0,0
17.11.2017 22:00:00 7,1 5,1 9 5 - - E 1028,4 10 0 0,0
17.11.2017 21:00:00 7,4 5,6 8 4 - - E 1028,5 10 0 0,0
17.11.2017 20:00:00 8,1 6,0 9 5 - - ENE 1028,7 10 0 0,0
17.11.2017 19:00:00 9,0 6,6 13 7 - - NE 1028,7 10 0 0,0
17.11.2017 18:00:00 8,9 5,9 11 6 - - ENE 1028,3 10 0 0,0
17.11.2017 17:00:00 9,2 5,6 11 6 - - NE 1027,9 10 0 0,0
17.11.2017 16:00:00 10,3 6,1 13 7 - - NNE 1027,7 10 54 0,0
17.11.2017 15:00:00 11,7 6,9 13 7 - - NNE 1027,8 10 12 0,0
17.11.2017 14:00:00 11,9 7,1 15 8 - - NNE 1028,1 10 18 0,0
17.11.2017 13:00:00 12,6 8,3 13 7 - - NE 1028,4 10 30 0,0
17.11.2017 12:00:00 11,9 7,8 15 8 - - E 1028,5 10 54 0,0
17.11.2017 11:00:00 11,9 8,4 15 8 - - ENE 1028,6 10 18 0,0

tt = Température de l'air
td = dewpoint
ff = Vitesse du vent
fx = gusts
dd = Direction du vent
ppp = reduced air pressure
vv = visibility
sd = Ensoleillement
rr = Quantités de précipitations

stations d'obs. à proximité